This is the latest recevied weather packets stored in our database for station/object VK6WB. If no packets are shown the sender has not sent any weather packets the latest 10 day(s).
| Time | Temp. | Humidity | Pressure | Rain* | Wind** | Luminosity | Snow |
|---|---|---|---|---|---|---|---|
| 1778189404 | 13.89° C | 60% | 1025 hPa | 0 mm | - | 168 W/m² | - |
| 1778188804 | 14.44° C | 59% | 1025 hPa | 0 mm | - | 168 W/m² | - |
| 1778188203 | 14.44° C | 57% | 1025 hPa | 0 mm | - | 220 W/m² | - |
| 1778187604 | 14.44° C | 57% | 1024.9 hPa | 0 mm | - | 220 W/m² | - |
| 1778187004 | 14.44° C | 57% | 1024.8 hPa | 0 mm | - | 220 W/m² | - |
| 1778186403 | 13.89° C | 60% | 1024.9 hPa | 0 mm | - | 220 W/m² | - |
| 1778185804 | 14.44° C | 60% | 1024.7 hPa | 0 mm | - | 272 W/m² | - |
| 1778185204 | 14.44° C | 59% | 1024.7 hPa | 0 mm | - | 272 W/m² | - |
| 1778184603 | 14.44° C | 59% | 1024.7 hPa | 0 mm | - | 272 W/m² | - |
| 1778184004 | 14.44° C | 59% | 1024.8 hPa | 0 mm | - | 272 W/m² | - |
| 1778183404 | 15° C | 58% | 1024.7 hPa | 0 mm | - | 272 W/m² | - |
| 1778182803 | 15° C | 58% | 1024.5 hPa | 0 mm | - | 323 W/m² | - |
| 1778182204 | 15° C | 58% | 1024.6 hPa | 0 mm | - | 323 W/m² | - |
| 1778181604 | 15° C | 57% | 1024.6 hPa | 0 mm | - | 323 W/m² | - |
| 1778181003 | 15.56° C | 57% | 1024.5 hPa | 0 mm | - | 375 W/m² | - |
| 1778180404 | 15.56° C | 56% | 1024.5 hPa | 0 mm | - | 427 W/m² | - |
| 1778179804 | 15.56° C | 57% | 1024.6 hPa | 0 mm | - | 582 W/m² | - |
| 1778179203 | 15.56° C | 57% | 1024.5 hPa | 0 mm | - | 686 W/m² | - |
| 1778178604 | 15.56° C | 56% | 1024.6 hPa | 0 mm | - | 944 W/m² | - |
| 1778178005 | 15.56° C | 56% | 1024.6 hPa | 0 mm | - | 1254 W/m² | - |
| 1778177405 | 15.56° C | 56% | 1024.5 hPa | 0 mm | - | 1461 W/m² | - |
| 1778176805 | 16.11° C | 54% | 1024.5 hPa | 0 mm | - | 1202 W/m² | - |
| 1778176205 | 16.11° C | 55% | 1024.4 hPa | 0 mm | - | 995 W/m² | - |
| 1778175605 | 16.11° C | 54% | 1024.3 hPa | 0 mm | - | 685 W/m² | - |
| 1778175006 | 16.11° C | 54% | 1024.5 hPa | 0 mm | - | 116 W/m² | - |
* Rain latest hour (hover to see other rain measurements)
** Current wind speed in m/s (hover to see current wind gust speed)